Fairbanks, AK

4:58 PM AKST on December 13, 2019 (GMT -0900)
Fairbanks International

Weather History for PAFA - May, 2019

Change the Weather History Date:

Thursday, May 30, 2019

  Actual Average Record
Temperature  
Mean Temperature 62 °F 55 °F  
Max Temperature 75 °F 67 °F 84 °F (1983)
Min Temperature 49 °F 43 °F 28 °F (1931)
Degree Days  
Heating Degree Days 3 10  
Month to date heating degree days 333 476  
Since 1 July heating degree days 11595 13500  
Cooling Degree Days 0 0  
Month to date cooling degree days 1 0  
Year to date cooling degree days 1 0  
Growing Degree Days 12 (Base 50)    
Moisture  
Dew Point 39 °F    
Average Humidity 42    
Maximum Humidity 74    
Minimum Humidity 14    
Precipitation  
Precipitation 0.00 in 0.03 in 0.55 in (1977)
Month to date precipitation 0.70 0.58  
Year to date precipitation 3.18 2.14  
Snow  
Snow 0.00 in 0.00 in T in (2003)
Month to date snowfall T 0.9  
Since 1 July snowfall 57.5 65.0  
Snow Depth 0.00 in    
Sea Level Pressure  
Sea Level Pressure 29.85 in    
Wind  
Wind Speed 5 mph (ENE)    
Max Wind Speed 14 mph    
Max Gust Speed -    
Visibility 10 miles    
Events      
T = Trace of Precipitation, MM = Missing Value Source: NWS Daily Summary

Daily Weather History Graph

Daily Weather History Graph

Search for Another Location

Airport or City:

Astronomy

May. 30, 2019 Rise Set
Actual Time 3:39 AM AKDT 12:01 AM AKDT
Civil Twilight Sun does not rise Sun does not rise
Nautical Twilight Sun does not rise Sun does not rise
Astronomical Twilight Sun does not rise Sun does not rise
Moon 4:17 AM AKDT (5/30) 6:04 PM AKDT (5/30)
Length of Visible Light 24h 00m
Length of Day
20h 21m
Waning Crescent, 14% of the Moon is Illuminated
May 30
Waning Crescent
Jun 3
New
Jun 9
First Quarter
Jun 17
Full
Jun 25
Last Quarter

Hourly Weather History & Observations

Time (AKDT) Temp. Dew Point Humidity Pressure Visibility Wind Dir Wind Speed Gust Speed Precip Events Conditions
12:53 AM 59.0 °F 41.0 °F 51% 29.92 in 10.0 mi ENE 4.6 mph - N/A   Mostly Cloudy
1:53 AM 55.0 °F 41.0 °F 59% 29.93 in 10.0 mi Calm Calm - N/A   Mostly Cloudy
2:53 AM 51.1 °F 43.0 °F 74% 29.94 in 10.0 mi Calm Calm - N/A   Mostly Cloudy
3:53 AM 50.0 °F 42.1 °F 74% 29.94 in 10.0 mi SE 3.5 mph - N/A   Mostly Cloudy
4:53 AM 51.1 °F 39.0 °F 63% 29.95 in 10.0 mi ENE 6.9 mph - N/A   Mostly Cloudy
5:53 AM 51.1 °F 41.0 °F 68% 29.96 in 10.0 mi Calm Calm - N/A   Mostly Cloudy
6:53 AM 54.0 °F 42.1 °F 64% 29.96 in 10.0 mi Calm Calm - N/A   Mostly Cloudy
7:53 AM 55.0 °F 42.1 °F 62% 29.96 in 10.0 mi NNE 4.6 mph - N/A   Mostly Cloudy
8:53 AM 57.9 °F 39.9 °F 51% 29.95 in 10.0 mi NE 4.6 mph - N/A   Mostly Cloudy
9:53 AM 62.1 °F 39.9 °F 44% 29.94 in 10.0 mi NNE 6.9 mph - N/A   Mostly Cloudy
10:53 AM 64.0 °F 37.0 °F 37% 29.93 in 10.0 mi NE 9.2 mph - N/A   Scattered Clouds
11:53 AM 66.2 °F 37.4 °F 35% 29.89 in 10.0 mi East 10.4 mph - N/A   Partly Cloudy
12:53 PM 69.1 °F 37.0 °F 31% 29.89 in 10.0 mi SE 5.8 mph - N/A   Partly Cloudy
1:53 PM 71.1 °F 37.0 °F 29% 29.86 in 10.0 mi East 5.8 mph - N/A   Scattered Clouds
2:53 PM 72.0 °F 34.0 °F 25% 29.84 in 10.0 mi SE 11.5 mph - N/A   Scattered Clouds
3:53 PM 73.9 °F 35.1 °F 24% 29.81 in 10.0 mi SE 11.5 mph - N/A   Scattered Clouds
4:53 PM 73.9 °F 34.0 °F 23% 29.78 in 10.0 mi East 8.1 mph - N/A   Scattered Clouds
5:53 PM 75.0 °F 35.1 °F 23% 29.76 in 10.0 mi East 12.7 mph - N/A   Mostly Cloudy
6:53 PM 69.1 °F 41.0 °F 36% 29.75 in 10.0 mi NE 8.1 mph - N/A   Mostly Cloudy
7:53 PM 71.1 °F 39.0 °F 31% 29.73 in 10.0 mi East 10.4 mph - N/A   Mostly Cloudy
8:53 PM 71.1 °F 39.9 °F 32% 29.72 in 10.0 mi East 13.8 mph - N/A   Mostly Cloudy
9:53 PM 69.1 °F 39.9 °F 35% 29.71 in 10.0 mi ENE 8.1 mph - N/A   Mostly Cloudy
10:53 PM 66.9 °F 39.9 °F 37% 29.70 in 10.0 mi ENE 9.2 mph - N/A   Mostly Cloudy
11:53 PM 62.1 °F 41.0 °F 46% 29.70 in 10.0 mi NNE 6.9 mph - N/A   Mostly Cloudy